RH
85 90 88 79 91 84 79 76 77 89 95 98 99 97 95 96 96 95 92 91 90 90 83 85 89 91 91 91 89 90 92 90 88 93 91 88 81 80 72 63 77 86 97
80 94 88 80 89 90 86 81 82 87 93 97 99 95 97 96 95 87 87 88 88 88 88 86 87 85 84 89 92 93 92 86 86 84 79 57 51 69 84 85 88 83 75
88 99 96 79 88 88 91 71 73 90 92 98 99 96 96 94 92 89 86 85 85 86 85 86 88 86 80 76 86 92 89 87 79 66 48 80 90 85 91 96 98 93 90
96 99 99 82 88 89 91 73 76 89 90 91 93 95 97 95 94 92 86 84 84 83 83 88 90 90 89 86 82 60 53 54 49 80 86 92 95 91 98 96 98 92 97
99 98 97 82 88 88 90 82 84 87 87 88 88 87 90 96 97 95 86 86 88 86 88 90 93 94 91 86 92 87 69 70 83 81 84 94 92 93 98 97 97 96 96
100 99 91 86 88 86 88 89 90 89 86 84 84 85 87 92 98 97 83 86 82 89 92 95 95 94 86 88 91 87 89 82 83 95 94 88 85 95 95 93 91 92 85
100 97 92 84 85 86 86 88 87 84 82 82 79 77 84 94 98 84 61 52 74 94 95 96 94 91 88 80 84 88 88 86 91 87 90 88 82 84 91 92 89 90 91
100 90 96 84 87 87 88 84 84 83 81 81 80 77 88 87 97 83 65 50 79 90 95 95 93 89 81 82 82 86 86 85 83 79 79 86 89 90 92 92 92 91 92
98 83 87 90 87 87 88 85 83 89 80 79 79 78 88 86 91 87 73 57 80 83 87 90 82 83 78 75 78 78 74 71 70 69 77 84 90 90 92 92 92 92 92
99 91 84 88 91 93 89 86 84 81 79 76 78 79 84 87 88 92 80 75 58 64 74 83 81 77 74 72 76 77 74 74 71 70 74 84 93 90 93 91 91 92 92
98 93 88 89 92 89 90 91 86 80 79 80 81 76 82 83 94 93 87 81 67 61 64 71 77 75 74 73 74 76 75 75 72 70 75 75 88 91 91 91 91 92 92
99 99 99 95 92 90 91 92 89 85 84 85 82 80 81 76 86 93 94 89 87 70 67 68 66 71 73 73 74 77 76 75 75 72 71 75 87 91 90 90 93 93 93
96 100 99 97 99 99 98 93 91 88 86 83 79 74 78 82 74 89 97 97 92 87 78 63 65 64 69 73 74 74 72 73 76 75 70 72 83 90 86 87 91 92 93
92 95 95 94 99 100 100 94 89 86 80 74 68 73 86 88 79 83 89 92 88 81 77 71 64 61 67 67 70 72 72 71 73 73 71 68 74 88 84 89 92 91 93
94 87 84 93 94 97 99 95 89 84 79 72 66 77 84 83 78 81 85 89 89 86 83 77 70 68 57 64 67 67 69 71 71 70 70 69 68 72 83 87 93 90 92
91 86 89 88 90 94 97 98 91 86 80 76 73 68 75 74 73 76 80 83 82 80 81 79 76 70 64 57 60 64 65 67 69 67 65 66 65 67 73 88 91 90 90
82 88 96 91 90 94 99 96 95 89 84 80 73 69 67 74 77 71 74 77 76 78 81 81 80 75 71 64 55 60 69 72 69 67 67 64 64 67 66 74 89 90 90
66 74 73 76 92 91 95 96 98 94 88 84 79 76 72 70 74 76 74 69 69 75 77 78 80 80 74 68 62 54 67 72 73 70 64 61 60 62 64 66 72 88 91
63 64 69 75 98 90 93 97 98 99 93 88 86 81 79 79 79 72 64 64 68 74 77 77 80 77 74 68 64 60 58 67 74 75 73 64 59 59 60 62 67 74 81
60 60 61 66 80 79 100 99 100 100 98 90 90 89 82 83 81 82 73 70 73 74 76 77 75 73 74 70 72 73 72 71 72 71 72 71 64 58 60 63 66 70 75
70 68 72 63 79 75 99 100 100 100 100 99 88 91 86 85 83 83 83 80 78 80 71 71 69 72 76 78 82 80 69 66 68 68 72 74 72 66 60 58 62 64 66
86 91 62 59 60 63 72 93 99 100 89 93 87 83 86 86 84 84 83 83 82 78 76 72 72 72 76 76 81 83 72 70 66 64 65 68 66 66 62 59 55 57 65
70 75 79 64 54 54 59 62 86 97 98 96 92 87 79 80 81 81 80 80 81 83 77 71 70 70 76 73 74 74 78 74 75 61 58 55 55 57 58 56 56 57 61
38 50 89 64 60 72 91 90 91 97 97 83 69 86 76 74 79 81 84 78 73 80 80 75 71 71 72 82 79 78 74 71 75 79 64 59 59 56 56 57 57 57 56
28 29 42 84 82 67 91 96 92 95 89 83 84 81 77 75 73 70 68 72 77 79 81 79 76 78 78 78 74 77 80 82 82 80 85 76 74 71 68 65 60 59 58
33 30 34 74 86 83 92 95 98 92 91 90 86 86 92 91 91 84 80 79 77 77 77 77 79 83 81 79 78 79 76 80 90 90 90 86 83 84 82 78 75 74 69
Wind_Speed
24 30 28 28 25 25 24 24 24 23 22 22 20 18 18 18 18 17 18 17 17 16 15 15 16 17 17 17 18 18 16 17 17 20 18 15 13 14 14 15 14 12 10
32 31 30 29 26 25 24 23 22 22 21 20 20 19 18 18 18 17 17 17 17 17 16 18 18 18 18 18 18 18 21 19 18 16 13 13 15 15 14 15 14 11 12
34 30 30 30 27 25 23 23 22 21 20 20 20 18 18 18 17 17 17 17 17 17 17 19 19 19 19 18 18 18 18 17 15 14 15 14 14 14 14 14 18 18 15
32 30 29 31 28 25 23 22 21 19 18 18 18 18 17 17 16 16 16 17 17 17 18 19 18 17 17 17 17 17 17 16 17 19 16 12 12 13 14 16 19 20 19
29 29 29 31 27 25 22 21 20 18 18 16 17 17 16 16 16 15 16 17 17 18 19 18 18 16 16 16 15 15 16 18 20 19 18 18 14 12 15 15 16 16 15
28 28 31 30 27 25 23 20 19 19 17 16 16 16 16 15 16 14 15 17 18 20 19 18 17 16 17 16 15 16 15 17 18 16 16 16 14 13 13 13 13 12 10
28 29 29 29 27 25 23 22 19 17 17 16 13 11 15 14 17 14 13 15 18 18 17 16 16 16 15 14 15 17 18 18 16 13 11 11 10 9 9 10 11 12 12
26 30 26 28 27 26 24 22 20 18 17 15 12 11 14 14 16 14 14 15 17 17 17 15 14 15 15 16 16 16 14 12 10 9 10 10 9 10 11 12 11 11 11
26 29 28 26 26 24 23 22 20 19 15 14 12 11 14 15 15 15 14 14 16 16 16 15 13 13 12 13 13 12 10 9 10 10 10 9 9 9 10 10 10 10 11
22 26 27 27 25 24 22 22 21 18 18 15 12 11 12 14 16 15 14 13 14 15 15 14 12 11 10 10 10 9 8 8 9 9 9 8 8 8 9 9 9 10 11
21 25 26 28 26 25 23 22 20 17 17 14 13 12 12 13 15 15 14 13 13 13 13 12 11 10 9 8 8 8 6 6 6 7 8 7 7 7 7 8 8 9 10
23 23 23 25 26 25 24 24 21 19 17 15 14 14 17 13 16 15 13 12 12 12 12 11 10 9 8 8 8 6 4 3 3 4 5 6 6 5 5 6 6 8 8
20 20 22 23 23 23 25 25 23 20 18 15 14 15 17 16 17 15 14 13 12 11 11 10 9 8 8 8 6 5 3 2 2 1 2 3 4 3 3 4 4 6 7
22 20 23 25 25 25 26 25 23 20 18 16 15 16 19 18 17 18 18 16 14 12 10 9 8 8 8 8 7 6 4 2 3 2 1 0 1 1 2 1 3 4 5
21 25 27 27 26 25 26 26 24 22 19 17 16 18 19 18 17 18 18 17 15 12 10 9 8 7 8 8 8 8 7 5 4 4 5 4 3 2 1 1 3 3 4
25 24 27 29 28 28 26 27 26 22 20 18 16 18 19 18 17 18 18 17 15 13 11 9 7 7 7 8 9 9 8 7 7 7 6 7 6 5 4 4 4 4 4
29 28 24 29 30 30 25 26 25 24 21 19 17 17 18 18 18 17 17 17 15 13 12 10 9 9 9 9 10 10 10 9 9 9 9 9 9 9 7 6 7 6 5
24 24 25 28 33 31 29 26 25 25 23 21 19 19 18 18 18 18 17 16 14 13 12 11 11 11 11 11 12 12 12 11 11 10 11 11 12 12 11 10 8 8 8
26 25 26 26 31 35 31 27 26 24 24 23 22 21 21 20 18 18 19 17 15 14 13 13 12 12 12 12 11 10 12 13 13 14 14 12 13 14 15 13 12 12 11
22 22 26 24 26 29 32 28 25 24 23 24 24 23 22 22 20 19 19 17 16 16 15 15 14 12 13 11 11 12 14 16 17 16 16 16 16 16 17 17 16 15 14
19 23 25 24 27 23 23 26 24 26 25 24 23 22 23 23 22 22 21 20 19 19 18 16 15 15 14 13 9 9 15 17 19 19 18 18 18 18 18 19 19 18 18
14 18 16 19 18 17 21 25 20 26 27 27 23 22 23 23 23 23 22 22 22 21 21 20 18 17 16 14 5 1 3 3 8 13 15 18 17 17 18 18 18 19 20
11 16 19 18 19 21 24 24 23 18 19 21 26 26 25 24 24 23 23 24 24 24 24 23 22 21 15 14 18 7 2 4 2 4 7 8 10 14 16 16 18 19 19
19 15 15 20 24 26 26 27 29 21 16 24 25 28 23 24 25 24 24 24 23 25 26 25 23 24 22 15 15 21 22 9 3 3 8 12 14 13 13 13 14 16 17
19 18 24 22 23 22 24 25 25 26 22 17 19 18 18 19 22 23 23 24 23 25 25 25 25 25 26 22 22 14 19 24 22 10 6 10 12 14 13 10 10 10 12
12 17 19 22 22 22 24 25 27 24 24 20 19 15 14 16 20 22 22 23 23 24 26 26 26 26 26 26 26 25 21 10 8 11 8 13 11 13 17 14 13 12 11
Wind_Direction
172 166 169 161 159 157 151 147 143 137 131 127 123 119 115 111 106 102 102 104 106 106 109 100 99 102 99 98 99 101 102 91 96 95 94 91 74 69 68 73 75 76 75
164 165 169 163 161 157 153 149 143 138 134 130 125 122 117 112 107 105 104 106 107 109 109 107 104 102 100 99 100 101 106 109 106 103 93 78 74 74 73 71 72 74 73
161 164 167 166 162 160 158 153 148 141 136 132 127 123 118 114 113 107 107 109 110 111 112 111 108 105 101 100 99 105 110 112 103 92 84 82 81 78 70 66 71 76 84
161 163 164 169 164 163 160 156 152 146 140 136 132 126 122 119 114 111 109 111 111 112 114 111 108 105 105 103 101 103 108 105 99 92 78 77 91 78 76 72 70 73 70
161 163 167 170 166 165 163 159 153 150 145 141 136 131 130 124 123 117 113 115 116 115 114 111 107 106 104 106 107 105 106 105 104 94 84 82 93 87 79 72 67 66 64
160 164 170 169 166 168 163 160 157 155 151 145 142 139 136 131 133 125 117 119 122 120 117 113 110 106 108 111 108 109 107 114 109 100 87 86 83 77 68 65 61 62 64
161 163 169 169 169 169 166 163 163 157 147 142 144 143 139 141 145 131 118 119 125 124 120 115 109 108 112 109 109 111 104 114 104 97 83 79 79 76 66 67 66 66 70
163 166 166 171 173 171 168 166 162 156 152 149 153 160 154 155 153 141 127 122 128 129 124 119 115 112 106 108 113 115 111 108 99 86 81 80 81 73 71 72 73 75 73
167 170 171 174 174 173 170 167 164 160 153 163 164 158 161 164 157 151 138 130 132 133 132 131 125 120 115 113 119 117 110 103 94 85 82 76 76 75 73 73 73 72 73
167 171 174 177 173 172 171 170 168 166 163 171 169 152 158 161 162 159 149 140 138 142 143 144 138 129 122 118 129 127 113 106 88 80 76 78 76 72 73 71 72 71 72
173 177 177 177 177 174 170 171 170 171 173 172 167 160 156 164 163 165 157 151 145 146 149 153 149 141 132 122 133 137 128 113 88 77 76 71 66 71 67 70 72 74 74
180 178 181 177 176 174 173 173 174 172 176 177 175 170 165 172 169 171 166 163 155 150 154 154 158 158 155 142 139 148 149 130 103 82 80 73 62 68 65 70 79 80 79
181 181 181 176 177 175 177 176 177 178 180 182 184 182 178 172 171 178 177 176 169 165 159 166 168 171 180 179 174 178 173 185 182 121 79 80 68 55 45 60 78 89 90
185 187 183 188 185 181 184 181 182 183 183 184 183 180 183 180 179 184 186 186 185 181 177 180 180 191 195 199 207 215 216 225 206 232 256 358 73 27 11 67 103 108 112
191 190 195 194 193 189 187 186 188 189 189 185 183 183 183 188 189 188 191 194 194 194 191 192 195 203 214 214 217 224 232 238 243 264 270 256 260 261 293 299 165 144 137
196 197 196 199 200 197 197 195 192 194 194 190 189 192 195 196 193 192 194 197 201 203 204 210 214 220 227 233 233 234 237 243 254 268 278 249 253 252 251 232 217 200 175
202 201 199 200 204 201 202 203 200 199 200 197 195 198 200 202 202 201 201 206 208 210 214 220 226 231 239 243 243 241 241 252 264 269 273 264 256 252 253 244 228 223 209
219 206 215 210 205 207 206 205 207 205 206 206 205 204 206 209 211 212 213 216 215 218 222 227 234 237 245 252 252 249 249 258 269 270 269 265 259 258 258 256 242 233 224
219 204 208 215 205 204 207 206 208 211 213 214 214 214 217 215 215 219 222 224 221 224 228 231 238 239 248 251 253 256 255 260 267 273 271 269 262 258 260 262 256 245 238
219 215 209 214 218 211 200 201 204 207 217 220 220 223 224 225 223 224 225 226 227 229 233 234 236 239 242 249 256 262 265 268 270 273 267 266 264 261 259 260 258 253 248
214 214 207 210 208 206 191 194 206 213 219 225 223 225 227 228 230 230 232 231 231 233 235 235 236 237 239 242 255 275 277 273 268 267 264 263 265 266 265 260 256 256 253
213 216 219 219 224 223 231 221 211 216 224 227 224 228 230 228 231 233 236 237 236 237 236 234 234 235 239 235 213 231 297 298 259 259 260 261 266 265 264 264 260 257 255
230 221 212 208 205 234 227 228 232 229 228 228 227 226 229 230 231 235 238 240 242 240 241 239 237 236 237 237 231 212 179 240 320 255 244 240 250 258 248 248 250 255 258
253 263 231 220 220 216 219 218 219 222 216 232 234 227 228 237 237 240 240 242 242 242 243 245 244 243 241 234 232 231 233 233 202 296 258 256 256 257 268 269 267 264 262
222 225 240 229 223 226 228 225 225 224 230 241 238 239 242 237 243 242 243 245 244 244 247 249 248 241 243 238 239 231 234 242 246 238 266 250 266 260 263 265 269 270 266
210 221 226 227 220 218 221 225 226 227 233 236 241 233 238 243 241 242 242 244 246 249 248 251 252 250 244 246 246 245 235 222 216 218 234 255 254 270 262 263 269 272 273